Location: Campestrin
(46.4667°N, 11.7167°E)
Time: 11:15:51
(UTC+00:00)

Cosmos 2251 Rocket - Pass Details

Date: 18 April 2021
Orbit: 765 x 791 km, 74.0° (Epoch: 07 May)

Event Time Altitude Azimuth Distance (km) Brightness Sun altitude
Rises 19:54:19 0° 207° (SSW) 3,275 6.7 -17.4°
Reaches altitude 10° 19:56:44 10° 210° (SSW) 2,348 5.9 -17.7°
Maximum altitude 20:02:03 69° 294° (WNW) 842 3.8 -18.4°
Drops below altitude 10° 20:07:24 10° 18° (NNE) 2,352 6.3 -19.1°
Sets 20:09:49 0° 21° (NNE) 3,281 7.1 -19.4°
